This demonstration page uses our WeatherBlox Daily Observations layout. Learn more.

Left ArrowRight Arrow

Hourly Observations for July 9, 2019

Temp ( °F °C ) Dew Point ( °F °C ) Humidity (%) Winds ( mph kmh ) Pressure ( in mb ) Visibility ( mi km ) Precip ( " mm )
12:53 am 00:53 Clear 73 22.8 61 16.1 66 66 E 5 7 30.01 1016 10 16 N/A
1:53 am 01:53 Partly Cloudy 69 20.6 62 16.7 78 78 N N/A 30.01 1016 10 16 N/A
2:53 am 02:53 Clear 66 18.9 63 17.2 90 90 N N/A 30.01 1016 10 16 N/A
3:53 am 03:53 Clear 64 17.8 62 16.7 93 93 N N/A 30.01 1016 10 16 N/A
4:53 am 04:53 Clear 63 17.2 61 16.1 93 93 N N/A 30.02 1017 10 16 N/A
5:53 am 05:53 Clear 63 17.2 61 16.1 93 93 N N/A 30.03 1017 10 16 N/A
6:53 am 06:53 Sunny 63 17.2 60 15.6 90 90 N N/A 30.04 1017 10 16 N/A
7:53 am 07:53 Sunny 70 21.1 60 15.6 71 71 N N/A 30.05 1018 10 16 N/A
8:53 am 08:53 Sunny 73 22.8 59 15 62 62 N N/A 30.06 1018 10 16 N/A
9:53 am 09:53 Sunny 78 25.6 61 16.1 56 56 N N/A 30.07 1018 10 16 N/A
10:53 am 10:53 Sunny 81 27.2 65 18.3 58 58 N N/A 30.04 1017 10 16 N/A
11:53 am 11:53 Sunny 84 28.9 66 18.9 55 55 N N/A 30.03 1017 10 16 N/A
12:53 pm 12:53 Mostly Sunny 85 29.4 67 19.4 55 55 ENE 6 9 30.02 1017 10 16 N/A
1:53 pm 13:53 Mostly Cloudy 87 30.6 66 18.9 50 50 N N/A 30.02 1017 10 16 N/A
2:53 pm 14:53 Partly Cloudy 87 30.6 67 19.4 51 51 undefined N/A 30.00 1016 10 16 N/A
3:53 pm 15:53 Mostly Sunny 88 31.1 67 19.4 50 50 N N/A 29.99 1016 10 16 N/A
4:53 pm 16:53 Mostly Sunny 89 31.7 67 19.4 48 48 E 7 11 29.98 1015 10 16 N/A
5:53 pm 17:53 Mostly Sunny 89 31.7 65 18.3 45 45 NE 3 6 29.98 1015 10 16 N/A
6:53 pm 18:53 Mostly Sunny 84 28.9 71 21.7 65 65 N N/A 29.97 1015 10 16 N/A
7:53 pm 19:53 Mostly Sunny 85 29.4 72 22.2 65 65 N N/A 29.98 1015 10 16 N/A
8:53 pm 20:53 Mostly Cloudy 80 26.7 72 22.2 76 76 N N/A 29.98 1015 10 16 N/A
9:53 pm 21:53 Partly Cloudy 76 24.4 70 21.1 82 82 N N/A 29.98 1015 10 16 N/A
10:53 pm 22:53 Clear 73 22.8 70 21.1 90 90 N N/A 29.99 1016 10 16 N/A
11:53 pm 23:53 Clear 73 22.8 69 20.6 87 87 N N/A 29.99 1016 10 16 N/A

Powered by AerisWeather